Flag for China Weather past 2 weeks in Langfang, Hebei, China

Now
64 °F

Light rain. Fog.


Feels Like: 64 °F
Forecast: 64 / 69 °F
Wind: 3 mph from East

Location: Beijing Airport

Current Time: Sep 5, 2015 at 7:36:22 AM

Latest Report: Sep 5, 2015 at 7:00 AM


Visibility: 2 mi

Pressure: 29.83 "Hg

Humidity: 100%

Dew point: 64 °F

Location of LangfangLocation

Historic Weather in Langfang — Graph

°F

Langfang temperature yesterday

Maximum temperature yesterday: 75 °F (at 10:00 AM)
Minimum temperature yesterday: 66 °F (at 4:30 AM)
Average temperature yesterday: 70 °F

Past Weeks' High & Low Weather Summary

 TemperatureHumidityPressure
High93 °F (Aug 28, 3:00 PM)100% (Aug 31, 7:30 AM)29.98 "Hg (Aug 31, 7:30 AM)
Low64 °F (Sep 1, 6:30 AM)30% (Aug 21, 1:00 PM)29.62 "Hg (Aug 21, 2:30 PM)
Average75 °F72%29.83 "Hg
* Reported Aug 21 6:00 AM — Sep 5 6:30 AM, Langfang, Weather by CustomWeather, © 2015

Note: Actual official high and low records may vary slightly from our data, if they occured in-between our weather recording intervals... More about our weather records

Advertising

Langfang weather history for previous 24 hours

 ConditionsComfort  
Time TempWeatherWind HumidityBarometerVisibility
6:30 AM
Sat, Sep 5
64 °FLight rain. Fog.8 mph94%29.83 "Hg2 mi
5:30 AM64 °FLight rain. Mostly cloudy.6 mph100%29.80 "Hg4 mi
5:00 AM64 °FLight rain. Mostly cloudy.3 mph100%29.80 "Hg4 mi
4:30 AM64 °FLight rain. Mostly cloudy.6 mph100%29.80 "Hg4 mi
4:00 AM64 °FLight rain. Mostly cloudy.3 mph100%29.80 "Hg4 mi
3:30 AM64 °FLight rain. Mostly cloudy.3 mph100%29.83 "Hg4 mi
3:00 AM64 °FLight rain. Mostly cloudy.3 mph100%29.83 "Hg4 mi
2:30 AM64 °FLight rain. Mostly cloudy.6 mph100%29.83 "Hg4 mi
2:00 AM64 °FLight rain. Mostly cloudy.6 mph100%29.83 "Hg4 mi
1:30 AM64 °FLight rain. Mostly cloudy.8 mph100%29.83 "Hg4 mi
1:00 AM64 °FLight rain. Fog.6 mph100%29.86 "Hg3 mi
12:30 AM64 °FLight rain. Fog.6 mph100%29.86 "Hg3 mi
12:00 AM66 °FLight rain. Fog.3 mph94%29.86 "Hg3 mi
11:30 PM
Fri, Sep 4
66 °FLight rain. Fog.6 mph94%29.86 "Hg2 mi
11:00 PM66 °FLight rain. Fog.6 mph94%29.86 "Hg2 mi
10:30 PM66 °FLight rain. Fog.3 mph94%29.89 "Hg2 mi
10:00 PM66 °FLight rain. Fog.6 mph100%29.89 "Hg2 mi
9:30 PM66 °FLight rain. Fog.6 mph100%29.89 "Hg2 mi
9:00 PM66 °FLight rain. Fog.8 mph100%29.89 "Hg2 mi
8:30 PM66 °FLight rain. Fog.6 mph100%29.89 "Hg2 mi
8:00 PM66 °FLight rain. Fog.3 mph100%29.89 "Hg2 mi
7:30 PM66 °FLight rain. Fog.6 mph100%29.89 "Hg2 mi
7:00 PM66 °FLight rain. Fog.3 mph100%29.86 "Hg2 mi
6:30 PM66 °FLight rain. Fog.3 mph100%29.86 "Hg2 mi
6:00 PM66 °FSprinkles. Passing clouds.6 mph100%29.86 "Hg2 mi
5:30 PM66 °FSprinkles. Passing clouds.10 mph100%29.86 "Hg2 mi
5:00 PM68 °FSprinkles. Passing clouds.6 mph94%29.89 "Hg2 mi
4:30 PM68 °FSprinkles. Passing clouds.8 mph94%29.86 "Hg2 mi
4:00 PM68 °FSprinkles. Passing clouds.6 mph94%29.86 "Hg2 mi
3:30 PM68 °FSprinkles. Passing clouds.8 mph94%29.86 "HgN/A
3:00 PM68 °FSprinkles. Passing clouds.3 mph94%29.86 "HgN/A
2:30 PM70 °FSprinkles. Passing clouds.6 mph88%29.86 "HgN/A
2:00 PM70 °FThunderstorms. Passing clouds.6 mph88%29.86 "Hg3 mi
1:30 PM70 °FSprinkles. Scattered clouds.8 mph94%29.86 "Hg3 mi
1:00 PM73 °FPassing clouds.8 mph78%29.89 "HgN/A
12:30 PM75 °FPassing clouds.8 mph74%29.89 "HgN/A
12:00 PM75 °FPassing clouds.6 mph74%29.89 "HgN/A
11:30 AM75 °FPassing clouds.6 mph74%29.89 "HgN/A
11:00 AM75 °FPassing clouds.6 mph78%29.92 "HgN/A
10:30 AM73 °FPassing clouds.6 mph78%29.92 "HgN/A
10:00 AM75 °FPassing clouds.3 mph78%29.95 "HgN/A
9:30 AM73 °FPassing clouds.3 mph78%29.95 "HgN/A
9:00 AM73 °FPassing clouds.3 mph78%29.95 "HgN/A
8:30 AM73 °FPassing clouds.3 mph78%29.95 "HgN/A
8:00 AM73 °FPassing clouds.3 mph78%29.95 "HgN/A
7:30 AM72 °FPassing clouds.3 mph83%29.95 "HgN/A
7:00 AM70 °FSunny.1 mph88%29.95 "Hg10 mi
Weather by CustomWeather, © 2015

See weather overviewHow to use our weather pages